Flag for U.S.A. Weather past 2 weeks in El Paso, Texas, U.S.A.

Now
87 °F

Sunny.


Feels Like: 84 °F
Forecast: 50 / 87 °F
Wind: 13 mph from West

Location: El Paso International Airport

Current Time: Mar 28, 2015 at 5:55:05 PM

Latest Report: Mar 28, 2015 at 4:51 PM


Visibility: 10 mi

Pressure: 29.86 "Hg

Humidity: 5%

Dew point: 9 °F

Location of El PasoLocation

Historic Weather in El Paso — Graph

°F

El Paso temperature yesterday

Maximum temperature yesterday: 79 °F (at 4:51 PM)
Minimum temperature yesterday: 47 °F (at 4:51 AM)
Average temperature yesterday: 63 °F

Past Weeks' High & Low Weather Summary

 TemperatureHumidityPressure
High86 °F (Mar 28, 3:51 PM)90% (Mar 17, 1:51 PM)30.24 "Hg (Mar 17, 1:51 PM)
Low45 °F (Mar 15, 6:51 AM)5% (Mar 28, 3:51 PM)29.76 "Hg (Mar 24, 7:51 PM)
Average62 °F40%29.99 "Hg
* Reported Mar 13 3:51 PM — Mar 28 3:51 PM, El Paso, Weather by CustomWeather, © 2015

Note: Actual official high and low records may vary slightly from our data, if they occured in-between our weather recording intervals... More about our weather records

Advertising

El Paso weather history for previous 24 hours

 ConditionsComfort  
Time TempWeatherWind HumidityBarometerVisibility
3:51 PM
Sat, Mar 28
86 °FSunny.7 mph5%29.90 "Hg10 mi
2:51 PM85 °FSunny.12 mph6%29.90 "Hg10 mi
1:51 PM84 °FSunny.8 mph7%29.94 "Hg10 mi
12:51 PM80 °FSunny.No wind9%29.96 "Hg10 mi
11:51 AM76 °FSunny.No wind12%30.01 "Hg10 mi
10:51 AM71 °FSunny.5 mph15%30.03 "Hg10 mi
9:51 AM64 °FSunny.No wind20%30.04 "Hg10 mi
8:51 AM58 °FSunny.5 mph26%30.03 "Hg10 mi
7:51 AM58 °FClear.3 mph26%30.01 "Hg10 mi
6:51 AM57 °FClear.10 mph24%29.99 "Hg10 mi
5:51 AM55 °FClear.5 mph27%29.98 "Hg10 mi
4:51 AM54 °FClear.8 mph29%29.96 "Hg10 mi
3:51 AM52 °FClear.9 mph34%29.97 "Hg10 mi
2:51 AM61 °FClear.5 mph20%29.95 "Hg10 mi
1:51 AM59 °FClear.8 mph23%29.97 "Hg10 mi
12:51 AM64 °FClear.9 mph18%29.97 "Hg10 mi
11:51 PM
Fri, Mar 27
63 °FClear.8 mph18%29.98 "Hg10 mi
10:51 PM65 °FClear.9 mph16%29.99 "Hg10 mi
9:51 PM68 °FClear.8 mph14%29.99 "Hg10 mi
8:51 PM70 °FClear.7 mph12%29.98 "Hg10 mi
7:51 PM72 °FSunny.8 mph12%29.98 "Hg10 mi
6:51 PM77 °FSunny.6 mph10%29.97 "Hg10 mi
5:51 PM79 °FSunny.10 mph10%29.96 "Hg10 mi
Weather by CustomWeather, © 2015

See weather overviewHow to use our weather pages